Information on these data can be found in provided Readme document
Contact Info: Zachary Fasnacht (zachary.fasnacht@ssaihq.com); Nickolay Krotkov (nickolay.a.krotkov@nasa.gov); Lok Lamsal (lok.lamsal@nasa.gov)

FillValue: -999.
ScaleFactor: 1e15
Units: molecules/cm^2

Date(yyyy-mm-dd),City,Country,LonCenter,LatCenter,BoundingCoordinates,Median,Q1,Q3,Mean,Baseline_Median,Baseline_Q1,Baseline_Q3,Baseline_Mean,NumGoodSamples,NumTotalSamples
2015-01-01,Dongguan,China,113.7167,23.0333,[113.2167 22.5333 114.2167 23.5333],19.045,11.543,26.127,19.192,17.639,12.06,25.607,19.238,98.0,556.0
2015-01-02,Dongguan,China,113.7167,23.0333,[113.2167 22.5333 114.2167 23.5333],19.045,12.151,26.127,19.345,17.78,12.364,26.162,19.366,104.0,544.0
2015-01-03,Dongguan,China,113.7167,23.0333,[113.2167 22.5333 114.2167 23.5333],19.15,11.62,26.795,19.793,18.241,12.588,26.605,19.786,139.0,561.0
2015-01-04,Dongguan,China,113.7167,23.0333,[113.2167 22.5333 114.2167 23.5333],19.15,11.62,26.795,19.793,17.446,11.968,24.765,18.999,139.0,547.0
2015-01-05,Dongguan,China,113.7167,23.0333,[113.2167 22.5333 114.2167 23.5333],19.15,11.62,26.795,19.793,17.938,12.031,24.645,19.152,139.0,548.0
2015-01-06,Dongguan,China,113.7167,23.0333,[113.2167 22.5333 114.2167 23.5333],21.063,12.151,27.621,20.614,19.888,12.461,27.027,20.384,117.0,555.0
2015-01-07,Dongguan,China,113.7167,23.0333,[113.2167 22.5333 114.2167 23.5333],17.268,10.125,26.127,19.081,18.454,11.315,26.156,19.642,140.0,536.0
2015-01-08,Dongguan,China,113.7167,23.0333,[113.2167 22.5333 114.2167 23.5333],13.424,9.841,22.19,17.665,18.799,12.031,25.728,19.847,108.0,546.0
2015-01-09,Dongguan,China,113.7167,23.0333,[113.2167 22.5333 114.2167 23.5333],15.066,11.235,21.624,17.391,18.322,11.994,24.822,19.196,141.0,537.0
2015-01-10,Dongguan,China,113.7167,23.0333,[113.2167 22.5333 114.2167 23.5333],15.974,11.62,22.501,18.183,16.818,11.989,24.924,18.705,123.0,512.0
2015-01-11,Dongguan,China,113.7167,23.0333,[113.2167 22.5333 114.2167 23.5333],14.03,9.525,20.391,15.642,15.857,10.924,24.799,18.057,117.0,497.0
2015-01-12,Dongguan,China,113.7167,23.0333,[113.2167 22.5333 114.2167 23.5333],14.03,9.366,20.347,15.458,15.776,10.8,24.586,17.877,145.0,504.0
2015-01-13,Dongguan,China,113.7167,23.0333,[113.2167 22.5333 114.2167 23.5333],14.03,9.366,20.347,15.458,15.19,10.342,23.699,17.314,145.0,502.0
2015-01-14,Dongguan,China,113.7167,23.0333,[113.2167 22.5333 114.2167 23.5333],14.665,10.02,22.048,16.871,13.729,9.217,21.474,16.182,169.0,486.0
2015-01-15,Dongguan,China,113.7167,23.0333,[113.2167 22.5333 114.2167 23.5333],14.665,10.02,22.048,16.871,13.679,9.123,21.566,16.089,169.0,501.0
2015-01-16,Dongguan,China,113.7167,23.0333,[113.2167 22.5333 114.2167 23.5333],15.974,10.658,23.957,18.149,13.739,9.212,21.735,16.124,188.0,476.0
2015-01-17,Dongguan,China,113.7167,23.0333,[113.2167 22.5333 114.2167 23.5333],15.567,10.335,23.957,18.002,13.167,8.362,21.017,15.575,181.0,495.0
2015-01-18,Dongguan,China,113.7167,23.0333,[113.2167 22.5333 114.2167 23.5333],15.42,10.335,23.2,17.492,13.578,8.437,21.956,15.758,146.0,483.0
2015-01-19,Dongguan,China,113.7167,23.0333,[113.2167 22.5333 114.2167 23.5333],15.095,10.228,23.2,17.315,13.257,8.724,22.023,15.608,163.0,506.0
2015-01-20,Dongguan,China,113.7167,23.0333,[113.2167 22.5333 114.2167 23.5333],15.095,10.228,23.2,17.315,12.881,8.718,20.082,15.171,163.0,496.0
2015-01-21,Dongguan,China,113.7167,23.0333,[113.2167 22.5333 114.2167 23.5333],15.095,10.228,23.2,17.315,12.164,8.38,18.801,14.605,163.0,493.0
2015-01-22,Dongguan,China,113.7167,23.0333,[113.2167 22.5333 114.2167 23.5333],17.096,10.88,23.957,18.271,12.643,8.605,18.363,14.715,140.0,498.0
2015-01-23,Dongguan,China,113.7167,23.0333,[113.2167 22.5333 114.2167 23.5333],16.747,10.658,23.957,18.061,12.123,8.334,16.859,14.012,154.0,478.0
2015-01-24,Dongguan,China,113.7167,23.0333,[113.2167 22.5333 114.2167 23.5333],16.747,9.031,29.887,18.624,11.619,7.743,17.317,13.689,121.0,486.0
2015-01-25,Dongguan,China,113.7167,23.0333,[113.2167 22.5333 114.2167 23.5333],16.747,9.031,29.887,18.624,11.555,7.45,17.683,13.717,121.0,526.0
2015-01-26,Dongguan,China,113.7167,23.0333,[113.2167 22.5333 114.2167 23.5333],21.336,11.633,30.506,21.031,11.651,7.52,16.495,13.145,102.0,551.0
2015-01-27,Dongguan,China,113.7167,23.0333,[113.2167 22.5333 114.2167 23.5333],22.588,13.41,30.645,22.211,11.557,7.674,16.03,13.016,78.0,537.0
2015-01-28,Dongguan,China,113.7167,23.0333,[113.2167 22.5333 114.2167 23.5333],22.588,13.41,30.645,22.211,11.537,7.849,16.592,12.889,78.0,546.0
2015-01-29,Dongguan,China,113.7167,23.0333,[113.2167 22.5333 114.2167 23.5333],21.336,13.092,29.984,20.536,11.273,8.065,17.402,12.974,54.0,548.0
2015-01-30,Dongguan,China,113.7167,23.0333,[113.2167 22.5333 114.2167 23.5333],21.336,13.092,29.984,20.536,10.998,7.214,14.186,11.889,54.0,534.0
2015-01-31,Dongguan,China,113.7167,23.0333,[113.2167 22.5333 114.2167 23.5333],16.17,8.018,22.588,15.643,8.974,6.168,11.973,10.377,35.0,549.0
2015-02-01,Dongguan,China,113.7167,23.0333,[113.2167 22.5333 114.2167 23.5333],13.88,8.018,16.292,13.636,9.248,6.158,11.826,10.436,52.0,520.0
2015-02-02,Dongguan,China,113.7167,23.0333,[113.2167 22.5333 114.2167 23.5333],13.88,8.018,16.292,13.636,8.954,5.798,11.362,8.973,52.0,539.0
2015-02-03,Dongguan,China,113.7167,23.0333,[113.2167 22.5333 114.2167 23.5333],12.893,8.699,16.17,13.286,9.112,6.174,11.939,9.402,61.0,529.0
2015-02-04,Dongguan,China,113.7167,23.0333,[113.2167 22.5333 114.2167 23.5333],12.893,8.699,16.17,13.286,8.94,5.807,11.409,9.221,61.0,549.0
2015-02-05,Dongguan,China,113.7167,23.0333,[113.2167 22.5333 114.2167 23.5333],12.893,8.466,16.17,12.883,8.632,5.384,11.071,8.89,71.0,541.0
2015-02-06,Dongguan,China,113.7167,23.0333,[113.2167 22.5333 114.2167 23.5333],13.05,8.699,17.663,14.854,8.837,5.744,12.544,10.066,90.0,540.0
2015-02-07,Dongguan,China,113.7167,23.0333,[113.2167 22.5333 114.2167 23.5333],13.05,8.91,16.292,14.648,8.8,5.751,12.703,10.079,76.0,548.0
2015-02-08,Dongguan,China,113.7167,23.0333,[113.2167 22.5333 114.2167 23.5333],13.05,8.91,16.292,14.648,9.061,6.155,13.302,10.492,76.0,528.0
2015-02-09,Dongguan,China,113.7167,23.0333,[113.2167 22.5333 114.2167 23.5333],13.05,8.91,16.292,14.648,9.152,6.208,13.707,10.74,76.0,537.0
2015-02-10,Dongguan,China,113.7167,23.0333,[113.2167 22.5333 114.2167 23.5333],11.157,6.563,15.469,12.916,9.055,5.834,13.644,10.62,92.0,529.0
2015-02-11,Dongguan,China,113.7167,23.0333,[113.2167 22.5333 114.2167 23.5333],10.685,6.563,15.354,12.743,9.412,6.227,14.26,11.162,88.0,504.0
2015-02-12,Dongguan,China,113.7167,23.0333,[113.2167 22.5333 114.2167 23.5333],10.685,6.563,15.354,12.743,9.299,6.251,14.381,11.23,88.0,490.0
2015-02-13,Dongguan,China,113.7167,23.0333,[113.2167 22.5333 114.2167 23.5333],10.532,6.563,15.354,12.617,9.679,6.359,14.305,11.161,93.0,498.0
2015-02-14,Dongguan,China,113.7167,23.0333,[113.2167 22.5333 114.2167 23.5333],10.532,6.563,15.354,12.617,10.645,6.928,15.142,11.857,93.0,502.0
2015-02-15,Dongguan,China,113.7167,23.0333,[113.2167 22.5333 114.2167 23.5333],10.532,6.563,15.354,12.617,10.797,7.088,15.364,12.134,93.0,491.0
2015-02-16,Dongguan,China,113.7167,23.0333,[113.2167 22.5333 114.2167 23.5333],10.532,6.563,15.354,12.941,10.873,7.175,15.407,12.228,76.0,513.0
2015-02-17,Dongguan,China,113.7167,23.0333,[113.2167 22.5333 114.2167 23.5333],10.532,6.563,15.354,12.941,11.154,7.513,15.765,12.566,76.0,489.0
2015-02-18,Dongguan,China,113.7167,23.0333,[113.2167 22.5333 114.2167 23.5333],7.757,4.309,13.05,12.933,10.819,7.299,15.473,12.515,50.0,507.0
2015-02-19,Dongguan,China,113.7167,23.0333,[113.2167 22.5333 114.2167 23.5333],8.098,4.593,12.476,12.427,11.282,7.665,15.818,12.729,55.0,495.0
2015-02-20,Dongguan,China,113.7167,23.0333,[113.2167 22.5333 114.2167 23.5333],8.098,5.017,12.476,13.071,12.61,8.645,16.414,13.811,45.0,515.0
2015-02-21,Dongguan,China,113.7167,23.0333,[113.2167 22.5333 114.2167 23.5333],6.563,4.309,8.573,6.688,11.58,8.561,15.172,12.718,26.0,506.0
2015-02-22,Dongguan,China,113.7167,23.0333,[113.2167 22.5333 114.2167 23.5333],6.574,4.309,10.148,7.273,10.724,7.885,14.202,11.891,41.0,503.0
2015-02-23,Dongguan,China,113.7167,23.0333,[113.2167 22.5333 114.2167 23.5333],6.574,4.309,10.148,7.273,10.492,7.718,14.492,12.255,41.0,510.0
2015-02-24,Dongguan,China,113.7167,23.0333,[113.2167 22.5333 114.2167 23.5333],6.574,4.309,10.148,7.273,10.55,7.732,14.208,12.564,41.0,490.0
2015-02-25,Dongguan,China,113.7167,23.0333,[113.2167 22.5333 114.2167 23.5333],8.098,6.574,9.66,8.541,11.268,8.368,17.854,14.412,25.0,497.0
2015-02-26,Dongguan,China,113.7167,23.0333,[113.2167 22.5333 114.2167 23.5333],8.098,6.574,9.66,8.541,10.994,8.241,16.224,13.736,25.0,537.0
2015-02-27,Dongguan,China,113.7167,23.0333,[113.2167 22.5333 114.2167 23.5333],8.098,6.574,9.66,8.541,11.246,8.738,16.224,13.931,25.0,563.0
2015-02-28,Dongguan,China,113.7167,23.0333,[113.2167 22.5333 114.2167 23.5333],8.208,6.574,10.962,8.714,11.812,8.624,18.191,15.073,20.0,550.0
2015-03-01,Dongguan,China,113.7167,23.0333,[113.2167 22.5333 114.2167 23.5333],8.208,6.574,10.962,8.714,11.812,8.624,18.191,15.073,20.0,555.0
2015-03-02,Dongguan,China,113.7167,23.0333,[113.2167 22.5333 114.2167 23.5333],8.208,6.574,10.962,8.714,11.287,8.207,17.892,14.774,20.0,553.0
2015-03-03,Dongguan,China,113.7167,23.0333,[113.2167 22.5333 114.2167 23.5333],8.208,6.574,10.962,8.714,11.287,8.207,17.892,14.774,20.0,537.0
2015-03-04,Dongguan,China,113.7167,23.0333,[113.2167 22.5333 114.2167 23.5333],8.208,6.574,10.962,8.714,12.526,8.725,18.151,15.106,20.0,552.0
2015-03-05,Dongguan,China,113.7167,23.0333,[113.2167 22.5333 114.2167 23.5333],8.208,6.574,10.962,8.714,12.761,8.761,18.617,15.404,20.0,525.0
2015-03-06,Dongguan,China,113.7167,23.0333,[113.2167 22.5333 114.2167 23.5333],9.37,6.551,11.284,9.118,13.44,10.064,19.224,16.022,15.0,543.0
2015-03-07,Dongguan,China,113.7167,23.0333,[113.2167 22.5333 114.2167 23.5333],9.37,6.551,11.284,9.118,13.463,10.084,20.24,16.082,15.0,533.0
2015-03-08,Dongguan,China,113.7167,23.0333,[113.2167 22.5333 114.2167 23.5333],9.37,6.551,11.284,9.118,13.457,9.905,20.098,15.96,15.0,553.0
2015-03-09,Dongguan,China,113.7167,23.0333,[113.2167 22.5333 114.2167 23.5333],8.697,8.697,8.697,9.045,16.211,11.67,23.913,18.83,2.0,543.0
2015-03-10,Dongguan,China,113.7167,23.0333,[113.2167 22.5333 114.2167 23.5333],8.697,8.697,8.697,9.045,15.918,11.467,23.613,18.528,2.0,540.0
2015-03-11,Dongguan,China,113.7167,23.0333,[113.2167 22.5333 114.2167 23.5333],8.697,8.697,8.878,8.626,19.226,12.956,24.019,20.207,4.0,548.0
2015-03-12,Dongguan,China,113.7167,23.0333,[113.2167 22.5333 114.2167 23.5333],8.878,7.422,15.698,11.276,16.975,12.295,21.937,18.774,10.0,527.0
2015-03-13,Dongguan,China,113.7167,23.0333,[113.2167 22.5333 114.2167 23.5333],8.878,7.422,15.698,11.276,16.982,11.647,21.845,18.614,10.0,536.0
2015-03-14,Dongguan,China,113.7167,23.0333,[113.2167 22.5333 114.2167 23.5333],8.878,7.422,15.698,11.276,16.456,11.316,21.54,18.124,10.0,529.0
2015-03-15,Dongguan,China,113.7167,23.0333,[113.2167 22.5333 114.2167 23.5333],8.878,7.422,15.698,11.276,15.772,10.529,21.262,17.138,10.0,504.0
2015-03-16,Dongguan,China,113.7167,23.0333,[113.2167 22.5333 114.2167 23.5333],8.878,7.422,15.698,11.276,15.829,10.341,21.515,17.469,10.0,488.0
2015-03-17,Dongguan,China,113.7167,23.0333,[113.2167 22.5333 114.2167 23.5333],8.878,7.422,15.698,11.276,16.491,11.092,22.22,18.049,10.0,498.0
2015-03-18,Dongguan,China,113.7167,23.0333,[113.2167 22.5333 114.2167 23.5333],8.878,7.422,15.698,11.276,15.536,10.463,21.691,17.34,10.0,504.0
2015-03-19,Dongguan,China,113.7167,23.0333,[113.2167 22.5333 114.2167 23.5333],8.878,7.422,15.698,11.276,14.723,10.154,21.753,17.154,10.0,493.0
2015-03-20,Dongguan,China,113.7167,23.0333,[113.2167 22.5333 114.2167 23.5333],8.878,7.422,15.698,11.276,15.07,9.85,20.634,16.562,10.0,512.0
2015-03-21,Dongguan,China,113.7167,23.0333,[113.2167 22.5333 114.2167 23.5333],13.377,11.892,15.876,14.002,12.86,9.554,19.569,15.696,19.0,490.0
2015-03-22,Dongguan,China,113.7167,23.0333,[113.2167 22.5333 114.2167 23.5333],13.377,11.892,15.876,14.002,12.877,9.539,19.524,15.649,19.0,506.0
2015-03-23,Dongguan,China,113.7167,23.0333,[113.2167 22.5333 114.2167 23.5333],13.377,8.878,15.698,13.335,12.533,9.189,19.289,15.364,21.0,493.0
2015-03-24,Dongguan,China,113.7167,23.0333,[113.2167 22.5333 114.2167 23.5333],13.377,11.474,15.698,13.579,12.786,9.189,17.903,14.613,29.0,514.0
2015-03-25,Dongguan,China,113.7167,23.0333,[113.2167 22.5333 114.2167 23.5333],13.377,11.474,15.698,13.579,13.084,9.249,18.758,14.738,29.0,501.0
2015-03-26,Dongguan,China,113.7167,23.0333,[113.2167 22.5333 114.2167 23.5333],13.209,6.244,15.698,12.213,13.257,8.831,17.487,14.333,35.0,495.0
2015-03-27,Dongguan,China,113.7167,23.0333,[113.2167 22.5333 114.2167 23.5333],13.209,6.244,14.089,12.084,13.147,9.033,17.083,13.857,29.0,502.0
2015-03-28,Dongguan,China,113.7167,23.0333,[113.2167 22.5333 114.2167 23.5333],9.996,7.678,13.377,10.917,12.021,8.078,16.605,12.959,42.0,481.0
2015-03-29,Dongguan,China,113.7167,23.0333,[113.2167 22.5333 114.2167 23.5333],9.996,7.678,13.377,10.917,11.71,7.985,16.468,12.864,42.0,488.0
2015-03-30,Dongguan,China,113.7167,23.0333,[113.2167 22.5333 114.2167 23.5333],9.544,7.664,10.968,9.768,11.371,7.61,15.113,12.012,79.0,530.0
2015-03-31,Dongguan,China,113.7167,23.0333,[113.2167 22.5333 114.2167 23.5333],9.544,7.678,11.29,10.319,11.087,7.444,14.427,11.63,92.0,557.0
2015-04-01,Dongguan,China,113.7167,23.0333,[113.2167 22.5333 114.2167 23.5333],9.544,7.678,11.29,10.319,10.595,7.681,14.256,11.571,92.0,539.0
2015-04-02,Dongguan,China,113.7167,23.0333,[113.2167 22.5333 114.2167 23.5333],9.544,7.678,11.29,10.319,11.141,8.14,14.798,11.989,92.0,544.0
2015-04-03,Dongguan,China,113.7167,23.0333,[113.2167 22.5333 114.2167 23.5333],9.544,7.678,11.29,10.319,11.239,8.154,14.462,11.992,92.0,547.0
2015-04-04,Dongguan,China,113.7167,23.0333,[113.2167 22.5333 114.2167 23.5333],9.544,7.678,11.29,10.319,10.778,8.057,14.078,11.618,92.0,533.0
2015-04-05,Dongguan,China,113.7167,23.0333,[113.2167 22.5333 114.2167 23.5333],8.714,7.579,9.913,9.391,10.624,8.151,13.756,11.376,83.0,547.0
2015-04-06,Dongguan,China,113.7167,23.0333,[113.2167 22.5333 114.2167 23.5333],9.349,7.579,10.799,9.627,10.731,8.067,13.769,11.291,102.0,528.0
2015-04-07,Dongguan,China,113.7167,23.0333,[113.2167 22.5333 114.2167 23.5333],9.349,7.579,10.799,9.704,10.877,8.084,13.89,11.373,100.0,547.0
2015-04-08,Dongguan,China,113.7167,23.0333,[113.2167 22.5333 114.2167 23.5333],9.708,7.843,11.658,10.191,10.658,8.042,13.456,11.104,121.0,534.0
2015-04-09,Dongguan,China,113.7167,23.0333,[113.2167 22.5333 114.2167 23.5333],9.781,7.883,12.04,10.793,10.421,7.919,13.288,11.128,154.0,558.0
2015-04-10,Dongguan,China,113.7167,23.0333,[113.2167 22.5333 114.2167 23.5333],9.913,8.334,13.06,11.337,10.148,7.986,12.997,10.859,156.0,549.0
2015-04-11,Dongguan,China,113.7167,23.0333,[113.2167 22.5333 114.2167 23.5333],9.913,8.334,13.06,11.337,9.625,7.85,12.974,10.706,156.0,546.0
2015-04-12,Dongguan,China,113.7167,23.0333,[113.2167 22.5333 114.2167 23.5333],10.422,8.385,13.812,11.555,10.245,8.127,13.657,11.072,145.0,551.0
2015-04-13,Dongguan,China,113.7167,23.0333,[113.2167 22.5333 114.2167 23.5333],10.422,8.385,13.812,11.555,10.352,8.212,13.774,11.163,145.0,531.0
2015-04-14,Dongguan,China,113.7167,23.0333,[113.2167 22.5333 114.2167 23.5333],11.888,8.508,14.537,12.944,11.082,8.23,14.134,11.77,108.0,537.0
2015-04-15,Dongguan,China,113.7167,23.0333,[113.2167 22.5333 114.2167 23.5333],11.776,8.508,14.38,12.532,11.035,8.255,14.011,11.517,95.0,529.0
2015-04-16,Dongguan,China,113.7167,23.0333,[113.2167 22.5333 114.2167 23.5333],11.776,8.508,14.38,12.532,10.89,7.916,13.583,11.299,95.0,509.0
2015-04-17,Dongguan,China,113.7167,23.0333,[113.2167 22.5333 114.2167 23.5333],11.646,8.508,14.38,12.503,10.098,7.339,13.071,10.697,96.0,495.0
2015-04-18,Dongguan,China,113.7167,23.0333,[113.2167 22.5333 114.2167 23.5333],11.646,8.508,14.38,12.517,9.793,7.281,12.415,10.487,98.0,500.0
2015-04-19,Dongguan,China,113.7167,23.0333,[113.2167 22.5333 114.2167 23.5333],11.646,8.508,14.38,12.517,9.759,7.258,12.23,10.435,98.0,500.0
2015-04-20,Dongguan,China,113.7167,23.0333,[113.2167 22.5333 114.2167 23.5333],11.367,8.508,14.38,12.258,9.682,7.316,12.33,10.379,110.0,486.0
2015-04-21,Dongguan,China,113.7167,23.0333,[113.2167 22.5333 114.2167 23.5333],11.367,8.508,14.864,12.69,9.431,7.129,12.286,10.331,96.0,496.0
2015-04-22,Dongguan,China,113.7167,23.0333,[113.2167 22.5333 114.2167 23.5333],11.367,8.508,14.864,12.693,9.818,7.519,13.756,11.04,97.0,468.0
2015-04-23,Dongguan,China,113.7167,23.0333,[113.2167 22.5333 114.2167 23.5333],11.888,8.664,19.318,14.26,10.635,7.628,14.831,11.248,66.0,488.0
2015-04-24,Dongguan,China,113.7167,23.0333,[113.2167 22.5333 114.2167 23.5333],10.792,9.015,18.564,12.4,10.129,7.346,14.139,10.56,33.0,477.0
2015-04-25,Dongguan,China,113.7167,23.0333,[113.2167 22.5333 114.2167 23.5333],9.173,5.759,10.199,9.241,10.365,7.23,12.872,10.256,23.0,500.0
2015-04-26,Dongguan,China,113.7167,23.0333,[113.2167 22.5333 114.2167 23.5333],5.885,4.799,10.19,7.736,9.737,7.297,12.398,9.927,27.0,497.0
2015-04-27,Dongguan,China,113.7167,23.0333,[113.2167 22.5333 114.2167 23.5333],5.715,3.55,10.19,7.139,9.904,7.212,12.814,10.06,30.0,497.0
2015-04-28,Dongguan,China,113.7167,23.0333,[113.2167 22.5333 114.2167 23.5333],5.715,3.55,10.19,7.139,9.601,7.118,12.597,9.866,30.0,503.0
2015-04-29,Dongguan,China,113.7167,23.0333,[113.2167 22.5333 114.2167 23.5333],5.715,3.55,10.19,7.139,5.791,3.771,12.537,8.04,30.0,484.0
2015-04-30,Dongguan,China,113.7167,23.0333,[113.2167 22.5333 114.2167 23.5333],5.715,3.55,10.19,7.139,5.526,3.494,12.285,7.875,30.0,491.0
2015-05-01,Dongguan,China,113.7167,23.0333,[113.2167 22.5333 114.2167 23.5333],5.715,3.55,10.19,7.139,5.435,3.485,11.949,7.691,30.0,526.0
2015-05-02,Dongguan,China,113.7167,23.0333,[113.2167 22.5333 114.2167 23.5333],5.715,3.55,10.19,7.169,5.589,3.507,12.089,7.797,29.0,552.0
2015-05-03,Dongguan,China,113.7167,23.0333,[113.2167 22.5333 114.2167 23.5333],5.715,3.55,10.19,6.945,5.603,3.413,11.978,7.667,27.0,542.0
2015-05-04,Dongguan,China,113.7167,23.0333,[113.2167 22.5333 114.2167 23.5333],5.262,3.55,9.173,6.689,5.562,3.378,10.575,7.387,30.0,551.0
2015-05-05,Dongguan,China,113.7167,23.0333,[113.2167 22.5333 114.2167 23.5333],4.648,3.075,6.092,4.964,4.808,3.31,8.524,6.384,42.0,551.0
2015-05-06,Dongguan,China,113.7167,23.0333,[113.2167 22.5333 114.2167 23.5333],4.601,3.075,6.08,4.703,4.745,3.258,8.307,6.236,37.0,536.0
2015-05-07,Dongguan,China,113.7167,23.0333,[113.2167 22.5333 114.2167 23.5333],4.601,3.056,5.913,4.49,4.433,3.152,5.817,5.043,41.0,554.0
2015-05-08,Dongguan,China,113.7167,23.0333,[113.2167 22.5333 114.2167 23.5333],3.943,3.11,5.322,4.337,4.007,3.115,5.231,4.398,53.0,524.0
2015-05-09,Dongguan,China,113.7167,23.0333,[113.2167 22.5333 114.2167 23.5333],3.943,3.11,5.322,4.337,3.891,3.137,5.12,4.318,53.0,541.0
2015-05-10,Dongguan,China,113.7167,23.0333,[113.2167 22.5333 114.2167 23.5333],3.943,3.11,5.322,4.337,3.888,3.058,5.041,4.279,53.0,529.0
2015-05-11,Dongguan,China,113.7167,23.0333,[113.2167 22.5333 114.2167 23.5333],4.276,3.11,5.532,4.405,4.01,3.086,5.081,4.328,49.0,545.0
2015-05-12,Dongguan,China,113.7167,23.0333,[113.2167 22.5333 114.2167 23.5333],4.477,3.117,5.5,4.427,4.002,2.964,5.069,4.278,44.0,538.0
2015-05-13,Dongguan,China,113.7167,23.0333,[113.2167 22.5333 114.2167 23.5333],4.477,3.117,5.5,4.427,4.121,3.001,5.261,4.365,44.0,539.0
2015-05-14,Dongguan,China,113.7167,23.0333,[113.2167 22.5333 114.2167 23.5333],4.477,3.117,5.5,4.427,4.424,3.242,5.601,4.641,44.0,544.0
2015-05-15,Dongguan,China,113.7167,23.0333,[113.2167 22.5333 114.2167 23.5333],4.477,3.117,5.5,4.427,4.412,3.244,5.671,4.665,44.0,525.0
2015-05-16,Dongguan,China,113.7167,23.0333,[113.2167 22.5333 114.2167 23.5333],4.477,3.117,5.5,4.427,4.654,3.372,5.787,4.802,44.0,539.0
2015-05-17,Dongguan,China,113.7167,23.0333,[113.2167 22.5333 114.2167 23.5333],4.477,3.117,5.5,4.427,4.618,3.372,5.807,4.803,44.0,523.0
2015-05-18,Dongguan,China,113.7167,23.0333,[113.2167 22.5333 114.2167 23.5333],4.477,3.117,5.5,4.427,4.64,3.532,5.843,4.861,44.0,494.0
2015-05-19,Dongguan,China,113.7167,23.0333,[113.2167 22.5333 114.2167 23.5333],4.597,3.117,5.5,4.488,4.698,3.529,5.881,4.877,41.0,481.0
2015-05-20,Dongguan,China,113.7167,23.0333,[113.2167 22.5333 114.2167 23.5333],3.373,3.11,4.948,3.818,4.776,3.697,6.186,5.041,21.0,491.0
2015-05-21,Dongguan,China,113.7167,23.0333,[113.2167 22.5333 114.2167 23.5333],3.387,3.11,4.628,3.788,4.895,3.793,6.054,5.029,31.0,494.0
2015-05-22,Dongguan,China,113.7167,23.0333,[113.2167 22.5333 114.2167 23.5333],3.459,3.11,4.315,3.771,4.799,3.862,5.909,4.932,41.0,480.0
2015-05-23,Dongguan,China,113.7167,23.0333,[113.2167 22.5333 114.2167 23.5333],3.605,2.982,4.153,3.68,4.815,3.865,6.046,5.024,32.0,498.0
2015-05-24,Dongguan,China,113.7167,23.0333,[113.2167 22.5333 114.2167 23.5333],3.605,2.982,4.153,3.68,4.897,4.018,6.102,5.163,32.0,471.0
2015-05-25,Dongguan,China,113.7167,23.0333,[113.2167 22.5333 114.2167 23.5333],3.605,2.982,4.153,3.68,4.978,4.033,6.011,5.163,32.0,489.0
2015-05-26,Dongguan,China,113.7167,23.0333,[113.2167 22.5333 114.2167 23.5333],3.459,2.959,4.153,3.57,5.035,4.034,6.061,5.175,34.0,478.0
2015-05-27,Dongguan,China,113.7167,23.0333,[113.2167 22.5333 114.2167 23.5333],3.608,2.982,5.074,4.228,5.087,4.16,6.24,5.321,63.0,497.0
2015-05-28,Dongguan,China,113.7167,23.0333,[113.2167 22.5333 114.2167 23.5333],3.683,3.129,5.052,4.208,4.997,4.094,6.186,5.244,68.0,487.0
2015-05-29,Dongguan,China,113.7167,23.0333,[113.2167 22.5333 114.2167 23.5333],3.683,3.129,5.052,4.208,4.81,4.004,6.011,5.087,68.0,485.0
2015-05-30,Dongguan,China,113.7167,23.0333,[113.2167 22.5333 114.2167 23.5333],3.917,3.155,4.964,4.23,4.829,4.007,6.034,5.085,71.0,492.0
2015-05-31,Dongguan,China,113.7167,23.0333,[113.2167 22.5333 114.2167 23.5333],3.96,3.115,5.052,4.203,4.68,3.853,5.618,4.893,86.0,473.0
2015-06-01,Dongguan,China,113.7167,23.0333,[113.2167 22.5333 114.2167 23.5333],3.96,3.115,5.052,4.203,4.64,3.841,5.686,4.871,86.0,487.0
2015-06-02,Dongguan,China,113.7167,23.0333,[113.2167 22.5333 114.2167 23.5333],3.714,3.074,4.942,4.109,4.342,3.588,5.548,4.677,90.0,523.0
2015-06-03,Dongguan,China,113.7167,23.0333,[113.2167 22.5333 114.2167 23.5333],3.714,3.074,4.942,4.106,4.107,3.186,5.295,4.441,92.0,546.0
2015-06-04,Dongguan,China,113.7167,23.0333,[113.2167 22.5333 114.2167 23.5333],3.714,3.129,4.953,4.137,4.133,3.198,5.361,4.541,88.0,532.0
2015-06-05,Dongguan,China,113.7167,23.0333,[113.2167 22.5333 114.2167 23.5333],3.714,3.129,5.055,4.205,4.093,3.203,5.318,4.523,84.0,540.0
2015-06-06,Dongguan,China,113.7167,23.0333,[113.2167 22.5333 114.2167 23.5333],4.37,3.218,5.252,4.343,4.178,3.127,5.318,4.507,78.0,540.0
2015-06-07,Dongguan,China,113.7167,23.0333,[113.2167 22.5333 114.2167 23.5333],4.37,3.218,5.252,4.326,4.03,3.179,5.348,4.45,75.0,528.0
2015-06-08,Dongguan,China,113.7167,23.0333,[113.2167 22.5333 114.2167 23.5333],4.376,3.218,5.263,4.386,4.105,3.173,5.542,4.518,82.0,547.0
2015-06-09,Dongguan,China,113.7167,23.0333,[113.2167 22.5333 114.2167 23.5333],4.37,3.485,5.091,4.424,4.174,3.277,5.441,4.535,101.0,522.0
2015-06-10,Dongguan,China,113.7167,23.0333,[113.2167 22.5333 114.2167 23.5333],4.413,3.56,5.16,4.48,4.246,3.322,5.208,4.427,99.0,539.0
2015-06-11,Dongguan,China,113.7167,23.0333,[113.2167 22.5333 114.2167 23.5333],4.12,3.483,4.964,4.312,4.151,3.33,5.135,4.377,96.0,528.0
2015-06-12,Dongguan,China,113.7167,23.0333,[113.2167 22.5333 114.2167 23.5333],4.35,3.56,5.263,4.595,4.23,3.361,5.236,4.477,125.0,546.0
2015-06-13,Dongguan,China,113.7167,23.0333,[113.2167 22.5333 114.2167 23.5333],4.35,3.571,5.426,4.615,4.174,3.307,5.307,4.453,129.0,538.0
2015-06-14,Dongguan,China,113.7167,23.0333,[113.2167 22.5333 114.2167 23.5333],4.174,3.437,5.366,4.524,4.346,3.442,5.374,4.578,137.0,536.0
2015-06-15,Dongguan,China,113.7167,23.0333,[113.2167 22.5333 114.2167 23.5333],4.174,3.483,5.454,4.564,4.393,3.465,5.533,4.638,125.0,542.0